This is the latest recevied weather packets stored in our database for station/object KB2AHZ. If no packets are shown the sender has not sent any weather packets the latest 10 day(s).
| Time | Temp. | Humidity | Pressure | Rain* | Wind** | Luminosity | Snow |
|---|---|---|---|---|---|---|---|
| 1777936894 | 23.33° C | 43% | 1013 hPa | 0 mm | - | 41 W/m² | - |
| 1777936591 | 23.33° C | 42% | 1012.5 hPa | 0 mm | - | 60 W/m² | - |
| 1777936287 | 23.33° C | 41% | 1012.9 hPa | 0 mm | - | 79 W/m² | - |
| 1777935983 | 23.89° C | 41% | 1012.8 hPa | 0 mm | - | 79 W/m² | - |
| 1777935682 | 23.33° C | 41% | 1013 hPa | 0 mm | - | 62 W/m² | - |
| 1777935380 | 23.89° C | 40% | 1012.9 hPa | 0 mm | - | 51 W/m² | - |
| 1777935076 | 23.89° C | 41% | 1013.2 hPa | 0 mm | - | 59 W/m² | - |
| 1777934773 | 23.89° C | 39% | 1013 hPa | 0 mm | - | 85 W/m² | - |
| 1777934469 | 23.89° C | 40% | 1013 hPa | 0 mm | - | 94 W/m² | - |
| 1777934167 | 23.89° C | 40% | 1013.1 hPa | 0 mm | - | 92 W/m² | - |
| 1777933862 | 23.89° C | 40% | 1013.1 hPa | 0 mm | - | 93 W/m² | - |
| 1777933559 | 23.89° C | 41% | 1013 hPa | 0 mm | - | 98 W/m² | - |
| 1777933256 | 23.89° C | 41% | 1013.2 hPa | 0 mm | - | 107 W/m² | - |
| 1777932954 | 24.44° C | 41% | 1013.2 hPa | 0 mm | - | 115 W/m² | - |
| 1777932650 | 24.44° C | 39% | 1013.3 hPa | 0 mm | - | 110 W/m² | - |
| 1777932347 | 24.44° C | 38% | 1013.5 hPa | 0 mm | - | 118 W/m² | - |
| 1777932044 | 24.44° C | 38% | 1013.3 hPa | 0 mm | - | 110 W/m² | - |
| 1777931740 | 25° C | 37% | 1013.3 hPa | 0 mm | - | 133 W/m² | - |
| 1777931438 | 25.56° C | 37% | 1013.2 hPa | 0 mm | - | 306 W/m² | - |
| 1777931133 | 25° C | 37% | 1013 hPa | 0 mm | - | 370 W/m² | - |
| 1777930830 | 25° C | 38% | 1013.1 hPa | 0 mm | - | 319 W/m² | - |
| 1777930527 | 25° C | 38% | 1013.3 hPa | 0 mm | - | 236 W/m² | - |
| 1777930224 | 24.44° C | 37% | 1013.3 hPa | 0 mm | - | 228 W/m² | - |
| 1777929920 | 24.44° C | 38% | 1013 hPa | 0 mm | - | 173 W/m² | - |
| 1777929617 | 25° C | 37% | 1013.2 hPa | 0 mm | - | 180 W/m² | - |
* Rain latest hour (hover to see other rain measurements)
** Current wind speed in m/s (hover to see current wind gust speed)